When you browse on this site, cookies collect data to enhance your experience and personalize the content and advertising you see.
Visit our Privacy Policy to learn more. By continuing to use the site, you agree to this use of cookies and data.
  • en France
  • Liste des pays
  • À 7 jours
  • Température de l'eau
  • Carte satellitaire
  • Carte météo
  • Widgets météo
  • user-avatar
    Se connecter

    Météo par heure à Abbeville

    Ce jour, 26 Avril, Vendredi

    Heure Température Précipitation Vent Pression Humidité
    00:00 +6°C° 0 mm 4 m/s 754 mmHg 92%
    01:00 +6°C° 0 mm 4 m/s 754 mmHg 92%
    02:00 +5°C° 0 mm 3 m/s 754 mmHg 93%
    03:00 +5°C° 0 mm 3 m/s 754 mmHg 93%
    04:00 +5°C° 0 mm 3 m/s 755 mmHg 92%
    05:00 +5°C° 0 mm 3 m/s 755 mmHg 91%
    06:00 +7°C° 0 mm 3 m/s 756 mmHg 90%
    07:00 +9°C° 0 mm 3 m/s 756 mmHg 82%
    08:00 +11°C° 0 mm 3 m/s 756 mmHg 75%
    09:00 +13°C° 0 mm 4 m/s 757 mmHg 68%
    10:00 +14°C° 0.1 mm 4 m/s 757 mmHg 65%
    11:00 +15°C° 0.1 mm 5 m/s 757 mmHg 62%
    12:00 +16°C° 0.1 mm 5 m/s 757 mmHg 60%
    13:00 +15°C° 0.5 mm 5 m/s 757 mmHg 63%
    14:00 +15°C° 0.5 mm 5 m/s 757 mmHg 67%
    15:00 +15°C° 0.5 mm 5 m/s 757 mmHg 71%
    16:00 +14°C° 0.1 mm 5 m/s 758 mmHg 75%
    17:00 +13°C° 0.1 mm 5 m/s 758 mmHg 79%
    18:00 +12°C° 0.1 mm 4 m/s 758 mmHg 84%
    19:00 +11°C° 0 mm 4 m/s 758 mmHg 85%
    20:00 +10°C° 0 mm 4 m/s 759 mmHg 87%
    21:00 +8°C° 0 mm 4 m/s 759 mmHg 88%
    22:00 +8°C° 0 mm 4 m/s 759 mmHg 86%
    23:00 +8°C° 0 mm 5 m/s 759 mmHg 83%

    Demain, 27 Avril, Samedi

    Heure Température Précipitation Vent Pression Humidité
    00:00 +8°C° 0 mm 6 m/s 758 mmHg 80%
    01:00 +8°C° 0.2 mm 6 m/s 758 mmHg 83%
    02:00 +8°C° 0.2 mm 7 m/s 758 mmHg 86%
    03:00 +7°C° 0.2 mm 8 m/s 758 mmHg 89%
    04:00 +7°C° 0.1 mm 8 m/s 758 mmHg 85%
    05:00 +8°C° 0.1 mm 7 m/s 758 mmHg 82%
    06:00 +6°C° 0.1 mm 7 m/s 759 mmHg 78%
    07:00 +6°C° 0.3 mm 8 m/s 759 mmHg 75%
    08:00 +7°C° 0.3 mm 9 m/s 759 mmHg 73%
    09:00 +7°C° 0.3 mm 10 m/s 760 mmHg 70%
    10:00 +7°C° 0.3 mm 11 m/s 760 mmHg 67%
    11:00 +8°C° 0.3 mm 11 m/s 760 mmHg 64%
    12:00 +8°C° 0.3 mm 11 m/s 760 mmHg 61%
    13:00 +8°C° 0.2 mm 11 m/s 761 mmHg 61%
    14:00 +8°C° 0.2 mm 11 m/s 761 mmHg 61%
    15:00 +8°C° 0.2 mm 11 m/s 761 mmHg 61%
    16:00 +8°C° 0.1 mm 10 m/s 761 mmHg 64%
    17:00 +7°C° 0.1 mm 9 m/s 761 mmHg 67%
    18:00 +7°C° 0.1 mm 9 m/s 761 mmHg 71%
    19:00 +6°C° 0.1 mm 8 m/s 762 mmHg 72%
    20:00 +6°C° 0.1 mm 7 m/s 762 mmHg 72%
    21:00 +6°C° 0.1 mm 7 m/s 762 mmHg 73%
    22:00 +7°C° 0.1 mm 6 m/s 762 mmHg 73%
    23:00 +5°C° 0.1 mm 6 m/s 762 mmHg 73%

    Après-demain, 28 Avril, Dimanche

    Heure Température Précipitation Vent Pression Humidité
    00:00 +5°C° 0.1 mm 6 m/s 762 mmHg 72%
    01:00 +5°C° 0 mm 6 m/s 762 mmHg 73%
    02:00 +6°C° 0 mm 5 m/s 762 mmHg 74%
    03:00 +5°C° 0 mm 5 m/s 762 mmHg 75%
    04:00 +5°C° 0 mm 6 m/s 762 mmHg 76%
    05:00 +5°C° 0 mm 6 m/s 762 mmHg 76%
    06:00 +5°C° 0 mm 6 m/s 762 mmHg 76%
    07:00 +6°C° 0.1 mm 7 m/s 762 mmHg 76%
    08:00 +6°C° 0.1 mm 8 m/s 762 mmHg 75%
    09:00 +6°C° 0.1 mm 9 m/s 762 mmHg 75%
    10:00 +7°C° 0.1 mm 8 m/s 762 mmHg 76%
    11:00 +7°C° 0.1 mm 8 m/s 762 mmHg 77%
    12:00 +8°C° 0.1 mm 7 m/s 762 mmHg 78%
    13:00 +9°C° 0.1 mm 7 m/s 762 mmHg 75%
    14:00 +9°C° 0.1 mm 8 m/s 762 mmHg 73%
    15:00 +10°C° 0.1 mm 8 m/s 762 mmHg 71%
    16:00 +10°C° 0.2 mm 7 m/s 762 mmHg 75%
    17:00 +10°C° 0.2 mm 6 m/s 762 mmHg 79%
    18:00 +9°C° 0.2 mm 5 m/s 762 mmHg 83%
    19:00 +8°C° 0.1 mm 5 m/s 762 mmHg 85%
    20:00 +7°C° 0.1 mm 4 m/s 762 mmHg 88%
    21:00 +8°C° 0.1 mm 3 m/s 762 mmHg 91%
    22:00 +7°C° 0 mm 3 m/s 762 mmHg 92%
    23:00 +7°C° 0 mm 3 m/s 762 mmHg 92%

    29 Avril, Lundi

    Heure Température Précipitation Vent Pression Humidité
    00:00 +5°C° 0 mm 3 m/s 762 mmHg 92%
    01:00 +5°C° 0 mm 3 m/s 762 mmHg 93%
    02:00 +5°C° 0 mm 3 m/s 762 mmHg 94%
    03:00 +5°C° 0 mm 3 m/s 762 mmHg 95%
    04:00 +7°C° 0 mm 3 m/s 762 mmHg 94%
    05:00 +8°C° 0 mm 3 m/s 762 mmHg 93%
    06:00 +8°C° 0 mm 3 m/s 762 mmHg 91%
    07:00 +9°C° 0.1 mm 3 m/s 763 mmHg 88%
    08:00 +9°C° 0.1 mm 3 m/s 763 mmHg 86%
    09:00 +10°C° 0.1 mm 3 m/s 763 mmHg 83%
    10:00 +10°C° 0 mm 3 m/s 763 mmHg 80%
    11:00 +11°C° 0 mm 3 m/s 763 mmHg 78%
    12:00 +11°C° 0 mm 3 m/s 763 mmHg 76%
    13:00 +11°C° 0 mm 3 m/s 763 mmHg 74%
    14:00 +12°C° 0 mm 3 m/s 763 mmHg 72%
    15:00 +12°C° 0 mm 3 m/s 763 mmHg 70%
    16:00 +13°C° 0.1 mm 2 m/s 763 mmHg 74%
    17:00 +13°C° 0.1 mm 2 m/s 763 mmHg 78%
    18:00 +13°C° 0.1 mm 2 m/s 763 mmHg 82%
    19:00 +10°C° 0 mm 2 m/s 764 mmHg 85%
    20:00 +9°C° 0 mm 2 m/s 764 mmHg 88%
    21:00 +8°C° 0 mm 3 m/s 764 mmHg 91%
    22:00 +7°C° 0 mm 3 m/s 764 mmHg 91%
    23:00 +7°C° 0 mm 3 m/s 764 mmHg 91%

    30 Avril, Mardi

    Heure Température Précipitation Vent Pression Humidité
    00:00 +5°C° 0 mm 3 m/s 764 mmHg 91%
    01:00 +5°C° 0 mm 3 m/s 764 mmHg 92%
    02:00 +5°C° 0 mm 3 m/s 764 mmHg 92%
    03:00 +4°C° 0 mm 3 m/s 764 mmHg 92%
    04:00 +5°C° 0 mm 3 m/s 764 mmHg 91%
    05:00 +5°C° 0 mm 3 m/s 764 mmHg 90%
    06:00 +7°C° 0 mm 2 m/s 764 mmHg 89%
    07:00 +9°C° 0 mm 3 m/s 764 mmHg 82%
    08:00 +11°C° 0 mm 3 m/s 764 mmHg 75%
    09:00 +13°C° 0 mm 3 m/s 764 mmHg 69%
    10:00 +14°C° 0 mm 3 m/s 764 mmHg 64%
    11:00 +16°C° 0 mm 3 m/s 764 mmHg 60%
    12:00 +17°C° 0 mm 3 m/s 764 mmHg 55%
    13:00 +17°C° 0 mm 3 m/s 764 mmHg 56%
    14:00 +18°C° 0 mm 3 m/s 763 mmHg 57%
    15:00 +18°C° 0 mm 3 m/s 763 mmHg 57%
    16:00 +17°C° 0 mm 2 m/s 763 mmHg 63%
    17:00 +16°C° 0 mm 2 m/s 763 mmHg 68%
    18:00 +15°C° 0 mm 2 m/s 763 mmHg 73%
    19:00 +13°C° 0 mm 3 m/s 763 mmHg 77%
    20:00 +11°C° 0 mm 3 m/s 763 mmHg 81%
    21:00 +9°C° 0 mm 3 m/s 763 mmHg 85%
    22:00 +8°C° 0 mm 3 m/s 763 mmHg 87%
    23:00 +8°C° 0 mm 3 m/s 763 mmHg 89%

    1 Mai, Mercredi

    Heure Température Précipitation Vent Pression Humidité
    00:00 +8°C° 0 mm 3 m/s 762 mmHg 91%
    01:00 +8°C° 0 mm 2 m/s 762 mmHg 92%
    02:00 +8°C° 0 mm 2 m/s 762 mmHg 93%
    03:00 +7°C° 0 mm 2 m/s 761 mmHg 93%
    04:00 +8°C° 0 mm 2 m/s 761 mmHg 92%
    05:00 +10°C° 0 mm 1 m/s 761 mmHg 91%
    06:00 +10°C° 0 mm 1 m/s 761 mmHg 90%
    07:00 +12°C° 0 mm 1 m/s 761 mmHg 84%
    08:00 +14°C° 0 mm 1 m/s 761 mmHg 78%
    09:00 +16°C° 0 mm 1 m/s 761 mmHg 73%
    10:00 +18°C° 0 mm 1 m/s 760 mmHg 68%
    11:00 +19°C° 0 mm 1 m/s 760 mmHg 63%
    12:00 +18°C° 0 mm 0 m/s 760 mmHg 58%
    13:00 +20°C° 0 mm 1 m/s 759 mmHg 59%
    14:00 +20°C° 0 mm 1 m/s 759 mmHg 60%
    15:00 +20°C° 0 mm 1 m/s 758 mmHg 60%
    16:00 +18°C° 0.1 mm 2 m/s 758 mmHg 68%
    17:00 +17°C° 0.1 mm 2 m/s 758 mmHg 75%
    18:00 +16°C° 0.1 mm 3 m/s 757 mmHg 83%
    19:00 +14°C° 0 mm 3 m/s 757 mmHg 86%
    20:00 +12°C° 0 mm 3 m/s 757 mmHg 89%
    21:00 +11°C° 0 mm 3 m/s 758 mmHg 92%
    22:00 +12°C° 0.1 mm 2 m/s 757 mmHg 92%
    23:00 +10°C° 0.1 mm 2 m/s 757 mmHg 92%
    Voir plus